This demonstration page uses our WeatherBlox Daily Observations layout. Learn more.

Left ArrowRight Arrow

34.16533, -84.80231

Hourly Observations for September 3, 2022

Temp ( °F °C ) Dew Point ( °F °C ) Humidity (%) Winds ( mph kmh ) Pressure ( in mb ) Visibility ( mi km ) Precip ( " mm )
12:15 am 00:15 Cloudy 75 24 72 22 89 89 ENE 3 6 30.11 1020 10 16 0.00 0.00
12:35 am 00:35 Cloudy 75 24 72 22 89 89 ENE 5 7 30.11 1020 10 16 0.00 0.00
12:55 am 00:55 Cloudy 75 24 72 22 89 89 Calm 30.11 1020 10 16 0.00 0.00
1:15 am 01:15 Cloudy 75 24 72 22 89 89 Calm 30.12 1020 10 16 0.00 0.00
1:35 am 01:35 Cloudy 75 24 72 22 89 89 E 6 9 30.11 1020 10 16 0.00 0.00
1:55 am 01:55 Cloudy 73 23 72 22 94 94 Calm 30.11 1020 10 16 0.00 0.00
2:15 am 02:15 Cloudy 75 24 72 22 89 89 Calm 30.11 1020 10 16 0.00 0.00
2:35 am 02:35 Cloudy 75 24 72 22 89 89 ESE 5 7 30.11 1020 10 16 0.00 0.00
2:55 am 02:55 Cloudy 73 23 72 22 94 94 ENE 3 6 30.11 1020 10 16 0.00 0.00
3:15 am 03:15 Partly Cloudy 73 23 72 22 94 94 Calm 30.11 1020 10 16 0.00 0.00
3:35 am 03:35 Partly Cloudy 73 23 72 22 94 94 Calm 30.11 1020 10 16 0.00 0.00
3:55 am 03:55 Mostly Clear 73 23 72 22 94 94 Calm 30.11 1020 10 16 0.00 0.00
4:15 am 04:15 Mostly Cloudy 73 23 72 22 94 94 E 5 7 30.11 1020 10 16 0.00 0.00
4:35 am 04:35 Mostly Cloudy 73 23 72 22 94 94 E 6 9 30.10 1019 10 16 0.00 0.00
4:55 am 04:55 Mostly Clear 73 23 72 22 94 94 E 7 11 30.10 1019 10 16 0.00 0.00
5:15 am 05:15 Clear 73 23 72 22 94 94 E 5 7 30.10 1019 10 16 0.00 0.00
5:35 am 05:35 Clear 73 23 72 22 94 94 Calm 30.10 1019 10 16 0.00 0.00
5:55 am 05:55 Mostly Cloudy 73 23 72 22 94 94 Calm 30.11 1020 10 16 0.00 0.00
6:15 am 06:15 Cloudy 73 23 72 22 94 94 Calm 30.11 1020 10 16 0.00 0.00
6:35 am 06:35 Cloudy 73 23 72 22 94 94 Calm 30.13 1020 10 16 0.00 0.00
6:55 am 06:55 Cloudy 73 23 72 22 94 94 Calm 30.11 1020 10 16 0.00 0.00
7:15 am 07:15 Mostly Cloudy 73 23 72 22 94 94 E 3 6 30.13 1020 10 16 0.00 0.00
7:35 am 07:35 Mostly Cloudy 73 23 72 22 94 94 Calm 30.13 1020 10 16 0.00 0.00
7:55 am 07:55 Cloudy 73 23 72 22 94 94 Calm 30.15 1021 10 16 0.00 0.00
8:15 am 08:15 Cloudy 73 23 72 22 94 94 Calm 30.15 1021 10 16 0.00 0.00
8:35 am 08:35 Cloudy 73 23 72 22 94 94 Calm 30.15 1021 10 16 0.00 0.00
8:55 am 08:55 Cloudy 75 24 72 22 89 89 Calm 30.15 1021 10 16 0.00 0.00
9:15 am 09:15 Cloudy 75 24 72 22 89 89 Calm 30.15 1021 10 16 0.00 0.00
9:35 am 09:35 Cloudy 77 25 72 22 83 83 VRB 5 7 30.15 1021 10 16 0.00 0.00
9:55 am 09:55 Cloudy 77 25 72 22 83 83 SSE 6 9 30.15 1021 9 14 0.00 0.00
10:15 am 10:15 Mostly Cloudy 79 26 72 22 79 79 VRB 3 6 30.15 1021 10 16 0.00 0.00
10:35 am 10:35 Cloudy 82 28 72 22 70 70 VRB 5 7 30.15 1021 10 16 0.00 0.00
10:55 am 10:55 Cloudy 82 28 72 22 70 70 SE 6 9 30.14 1021 10 16 0.00 0.00
11:15 am 11:15 Cloudy 81 27 72 22 74 74 VRB 6 9 30.15 1021 10 16 0.00 0.00
11:35 am 11:35 Mostly Cloudy 82 28 72 22 70 70 SE 6 9 30.14 1021 10 16 0.00 0.00
11:55 am 11:55 Mostly Cloudy 84 29 70 21 62 62 SSE 8 13 30.14 1021 10 16 0.00 0.00
12:15 pm 12:15 Mostly Cloudy 84 29 70 21 62 62 SSE 9 15 30.13 1020 10 16 0.00 0.00
12:35 pm 12:35 Mostly Cloudy 84 29 70 21 62 62 VRB 6 9 30.12 1020 10 16 0.00 0.00
12:55 pm 12:55 Mostly Cloudy 86 30 70 21 59 59 VRB 5 7 30.11 1020 10 16 0.00 0.00
1:15 pm 13:15 Mostly Cloudy 86 30 70 21 59 59 SSE 12 19 30.11 1020 10 16 0.00 0.00
1:35 pm 13:35 Mostly Cloudy 86 30 70 21 59 59 SE 8 13 30.11 1020 10 16 0.00 0.00
1:55 pm 13:55 Mostly Cloudy 86 30 70 21 59 59 SSE 8 13 30.10 1019 10 16 0.00 0.00
2:15 pm 14:15 Partly Cloudy 88 31 70 21 55 55 SE 10 17 30.09 1019 10 16 0.00 0.00
2:35 pm 14:35 Partly Cloudy 88 31 70 21 55 55 VRB 6 9 30.08 1019 10 16 0.00 0.00
2:55 pm 14:55 Partly Cloudy 86 30 68 20 55 55 SSE 10 17 30.08 1019 10 16 0.00 0.00
3:15 pm 15:15 Mostly Sunny 88 31 70 21 55 55 SSE 10 17 30.06 1018 10 16 0.00 0.00
3:35 pm 15:35 Sunny 88 31 70 21 55 55 SE 12 19 30.04 1017 10 16 0.00 0.00
3:55 pm 15:55 Mostly Sunny 90 32 70 21 52 52 ESE 8 13 30.03 1017 10 16 0.00 0.00
4:15 pm 16:15 Sunny 88 31 68 20 52 52 VRB 6 9 30.03 1017 10 16 0.00 0.00
4:35 pm 16:35 Mostly Sunny 90 32 68 20 49 49 VRB 7 11 30.01 1016 10 16 0.00 0.00
4:55 pm 16:55 Mostly Sunny 90 32 68 20 49 49 S 10 17 30.01 1016 10 16 0.00 0.00
5:15 pm 17:15 Mostly Cloudy 90 32 68 20 49 49 VRB 7 11 30.01 1016 10 16 0.00 0.00
5:35 pm 17:35 Mostly Cloudy 90 32 68 20 49 49 VRB 6 9 30.00 1016 10 16 0.00 0.00
5:55 pm 17:55 Sunny 90 32 68 20 49 49 SSE 10 17 30.00 1016 10 16 0.00 0.00
6:15 pm 18:15 Sunny 90 32 68 20 49 49 S 7 11 30.00 1016 10 16 0.00 0.00
6:35 pm 18:35 Sunny 88 31 68 20 52 52 SSE 6 9 30.01 1016 10 16 0.00 0.00
6:55 pm 18:55 Sunny 88 31 70 21 55 55 SE 5 7 30.01 1016 10 16 0.00 0.00
7:15 pm 19:15 Sunny 88 31 70 21 55 55 Calm 30.01 1016 10 16 0.00 0.00
7:35 pm 19:35 Sunny 86 30 70 21 59 59 SSE 3 6 30.02 1016 10 16 0.00 0.00
7:55 pm 19:55 Sunny 84 29 70 21 62 62 Calm 30.03 1017 10 16 0.00 0.00
8:15 pm 20:15 Clear 82 28 72 22 70 70 Calm 30.02 1017 10 16 0.00 0.00
8:35 pm 20:35 Clear 79 26 72 22 79 79 ESE 5 7 30.04 1017 10 16 0.00 0.00
8:55 pm 20:55 Partly Cloudy 79 26 72 22 79 79 Calm 30.05 1017 10 16 0.00 0.00
9:15 pm 21:15 Mostly Cloudy 79 26 72 22 79 79 Calm 30.05 1017 10 16 0.00 0.00
9:35 pm 21:35 Partly Cloudy 79 26 72 22 79 79 Calm 30.06 1018 10 16 0.00 0.00
9:55 pm 21:55 Partly Cloudy 79 26 70 21 74 74 Calm 30.07 1018 10 16 0.00 0.00
10:15 pm 22:15 Partly Cloudy 77 25 72 22 83 83 E 6 9 30.06 1018 10 16 0.00 0.00
10:35 pm 22:35 Clear 79 26 72 22 79 79 E 9 15 30.06 1018 10 16 0.00 0.00
10:55 pm 22:55 Clear 79 26 72 22 79 79 E 8 13 30.06 1018 10 16 0.00 0.00
11:15 pm 23:15 Clear 77 25 72 22 83 83 E 7 11 30.06 1018 10 16 0.00 0.00
11:35 pm 23:35 Clear 77 25 72 22 83 83 ENE 7 11 30.06 1018 10 16 0.00 0.00
11:55 pm 23:55 Partly Cloudy 77 25 72 22 83 83 ENE 6 9 30.06 1018 10 16 0.00 0.00

Powered by AerisWeather